Flag for Western Sahara Weather past 2 weeks in Smara, Western Sahara

Now
61 °F

Passing clouds.


Feels Like: 61 °F
Forecast: 59 / 89 °F
Wind: 17 mph from Northeast

Location: Laayoune/Hassan Isl

Current Time: Mar 6, 2015 at 2:50:51 AM

Latest Report: Mar 6, 2015 at 2:00 AM


Visibility: 5 mi

Pressure: 30.04 "Hg

Humidity: 83%

Dew point: 55 °F

Location of SmaraLocation

Historic Weather in Smara — Graph

°F

Smara temperature yesterday

Maximum temperature yesterday: 86 °F (at 1:00 PM)
Minimum temperature yesterday: 55 °F (at 8:00 AM)
Average temperature yesterday: 67 °F

Past Weeks' High & Low Weather Summary

 TemperatureHumidityPressure
High86 °F (Mar 4, 3:00 PM)94% (Feb 22, 12:00 AM)30.33 "Hg (Feb 22, 12:00 AM)
Low55 °F (Feb 21, 4:00 AM)10% (Mar 4, 3:00 PM)29.98 "Hg (Mar 5, 3:00 PM)
Average63 °F68%30.17 "Hg
* Reported Feb 19 2:00 AM — Mar 6 2:00 AM, Smara, Weather by CustomWeather, © 2015

Note: Actual official high and low records may vary slightly from our data, if they occured in-between our weather recording intervals... More about our weather records

Advertising

Smara weather history for previous 24 hours

 ConditionsComfort  
Time TempWeatherWind HumidityBarometerVisibility
2:00 AM
Fri, Mar 6
61 °FPassing clouds.17 mph83%30.04 "Hg5 mi
1:00 AM61 °FClear.16 mph83%30.07 "Hg10 mi
12:00 AM61 °FClear.16 mph83%30.07 "Hg10 mi
11:00 PM
Thu, Mar 5
63 °FClear.16 mph73%30.07 "Hg10 mi
10:00 PM64 °FClear.14 mph60%30.04 "Hg10 mi
9:00 PM66 °FClear.8 mph68%30.04 "Hg10 mi
8:00 PM68 °FClear.7 mph64%30.01 "Hg5 mi
7:00 PM70 °FSunny.13 mph64%30.01 "Hg10 mi
6:00 PM75 °FSunny.13 mph54%29.98 "Hg10 mi
5:00 PM79 °FSunny.15 mph48%29.98 "Hg10 mi
4:00 PM79 °FSunny.14 mph48%29.98 "Hg10 mi
3:00 PM86 °FSunny.10 mph22%29.98 "Hg10 mi
2:00 PM86 °FSunny.5 mph10%30.01 "Hg10 mi
1:00 PM86 °FSunny.8 mph11%30.04 "Hg10 mi
12:00 PM79 °FSunny.6 mph20%30.07 "Hg10 mi
11:00 AM73 °FSunny.14 mph31%30.07 "Hg10 mi
10:00 AM64 °FSunny.12 mph64%30.07 "Hg10 mi
9:00 AM59 °FSunny.13 mph77%30.07 "Hg10 mi
8:00 AM55 °FClear.10 mph88%30.07 "Hg4 mi
7:00 AM57 °FClear.9 mph82%30.07 "Hg4 mi
6:00 AM57 °FClear.8 mph82%30.07 "Hg5 mi
5:00 AM57 °FClear.7 mph77%30.07 "Hg5 mi
4:00 AM57 °FClear.10 mph77%30.07 "Hg5 mi
3:00 AM57 °FClear.12 mph77%30.07 "Hg5 mi
2:00 AM59 °FClear.15 mph77%30.09 "Hg4 mi
Weather by CustomWeather, © 2015

See weather overviewHow to use our weather pages